Location: Bergnershof
(48.9468°N, 10.9431°E)
Time: 04:33:00
(UTC+00:00)

Cosmos 1378 - Pass Details

Date: 03 March 2021
Orbit: 489 x 501 km, 82.5° (Epoch: 11 April)

Event Time Altitude Azimuth Distance (km) Brightness Sun altitude
Rises 18:24:32 0° 1° (N) 2,604 6.8 -14.2°
Reaches altitude 10° 18:27:01 10° 16° (NNE) 1,713 5.7 -14.6°
Enters shadow 18:29:35 22° 59° (ENE) 1,130 4.5 -15.0°
